Cloud_Cover
100 100 100 100 100 100 100 100 53 29 96 76 99 100 90 100 66 97 10 92 100 100
100 100 100 100 100 100 100 73 52 93 100 100 97 89 100 100 100 100 20 6 51 100
100 100 100 100 100 100 96 59 22 68 99 93 94 70 100 74 90 100 22 1 82 97
100 100 100 100 100 100 75 95 89 80 98 62 96 100 100 100 100 44 3 43 5 57
100 100 100 100 100 100 100 96 58 75 58 89 99 100 100 100 83 4 21 52 0 10
100 100 100 100 100 100 100 100 61 82 60 100 100 100 100 33 5 7 0 0 1 5
100 100 100 100 100 100 100 100 98 84 100 100 100 100 33 4 1 51 34 0 4 5
100 100 100 100 100 100 100 100 100 99 100 100 86 5 86 98 100 100 98 2 0 5
100 100 100 100 100 100 100 94 100 100 100 29 5 14 98 100 100 100 100 100 80 42
100 99 100 99 100 83 92 100 100 85 16 14 4 51 100 100 100 100 100 100 100 100
5 5 6 95 100 100 100 63 26 61 5 5 8 96 100 100 100 100 100 100 100 100
83 100 76 100 89 100 100 94 32 7 5 4 23 100 100 100 100 100 100 100 100 100
29 5 5 60 100 100 36 15 5 5 16 37 10 100 99 100 100 100 100 100 100 100
5 62 91 100 100 66 43 96 60 57 38 68 13 100 100 100 100 100 100 100 100 100